Dewpoint
49 49 46 45 42 43 40 37 33 30 31 31 28 30 31 29 31 39 28 37 38 33 30 31 31 32 33 33 33 33 32 31 32 33 34 35 35 35
49 46 42 40 41 40 41 38 36 34 32 33 32 29 31 24 35 35 31 36 40 34 31 32 34 35 36 36 34 32 31 31 32 33 33 33 33 33
47 45 41 39 39 38 38 39 37 36 34 32 31 29 28 28 31 30 31 32 34 36 36 37 35 37 38 36 36 32 34 34 34 33 34 34 34 33
46 45 42 38 38 37 35 34 36 35 32 29 30 30 29 29 29 28 26 26 28 32 37 37 35 37 38 37 37 35 37 37 36 35 35 34 34 34
44 43 40 39 37 36 36 33 35 32 32 31 30 32 30 29 28 28 27 26 27 37 35 34 36 37 35 35 35 35 36 37 37 37 37 35 34 34
42 39 38 37 35 35 34 32 33 32 31 31 30 29 28 27 28 25 25 29 26 27 32 32 35 35 33 34 35 35 36 37 37 37 36 34 34 34
40 38 39 40 39 37 34 32 32 32 31 30 29 28 26 26 24 27 25 27 27 30 28 28 28 28 26 29 30 32 35 36 36 36 35 34 33 33
38 36 37 39 37 36 35 34 33 32 30 30 29 25 25 25 27 26 25 23 18 29 28 27 29 27 27 26 30 34 35 35 35 35 33 33 33 32
36 34 31 32 34 33 33 33 33 33 33 30 27 26 25 27 27 25 24 24 23 26 27 25 28 26 27 24 30 35 35 35 34 33 32 32 32 32
35 33 32 30 31 29 27 26 27 28 29 29 28 28 27 28 27 25 24 25 25 27 29 25 26 24 24 25 30 33 34 33 33 32 31 32 31 30
36 34 33 31 32 33 28 26 25 25 29 33 33 32 32 31 27 27 26 23 22 23 28 24 24 24 25 26 27 31 32 32 32 31 31 31 31 29
37 36 34 32 33 32 27 26 23 24 21 19 18 23 24 26 30 26 25 22 22 22 27 25 23 23 24 26 26 26 26 28 30 30 30 30 29 25
36 36 34 33 33 33 31 26 26 25 25 22 19 15 12 15 20 22 26 24 23 23 26 25 23 23 24 24 25 25 25 25 25 26 27 26 28 27
35 37 35 33 34 33 31 31 30 26 24 23 21 18 18 18 22 26 25 27 28 25 26 27 25 24 23 21 22 24 24 25 25 23 23 24 25 24
36 35 35 34 33 31 31 31 28 26 24 23 23 21 24 25 26 28 29 28 28 28 28 28 27 26 25 23 23 23 24 24 24 22 23 22 20 20
32 35 33 32 30 31 30 28 27 27 25 23 23 24 26 27 28 28 27 26 26 26 26 27 27 26 24 24 24 23 24 21 22 22 22 20 19 19
33 33 32 31 30 29 27 25 26 28 26 26 25 25 26 27 28 28 26 26 25 24 24 24 25 25 26 24 23 24 22 22 21 22 20 19 18 17
33 32 32 31 30 29 27 26 24 23 26 28 27 26 26 27 27 27 26 26 25 25 25 24 24 24 26 25 27 23 21 20 22 20 20 19 16 16
34 32 32 32 31 30 29 27 26 25 24 24 25 27 28 28 27 27 27 26 24 25 25 24 24 23 18 17 23 28 20 21 21 19 19 18 17 17
35 35 34 33 32 31 30 28 28 27 24 24 24 25 26 26 26 26 26 25 23 24 25 25 24 24 19 15 15 19 26 22 20 19 17 17 18 20
35 36 36 35 34 33 32 31 30 29 28 26 25 24 25 26 24 24 26 24 23 23 22 23 23 25 23 21 16 17 19 24 24 20 17 15 14 14
37 37 37 37 36 36 35 34 32 31 30 29 29 29 28 26 25 24 25 24 22 22 23 25 24 23 20 20 18 16 19 19 20 19 20 20 16 12
34 36 37 37 37 37 37 36 33 33 32 31 31 31 31 27 26 26 25 24 23 24 24 24 24 20 20 20 18 18 16 17 16 13 13 18 20 21
Lifted_Index
3 3 5 7 8 8 9 8 8 9 10 11 12 13 14 15 17 18 19 19 19 19 19 19 19 19 19 18 18 18 18 19 19 19 19 18 18 18
3 4 6 7 8 8 9 9 9 9 10 11 12 13 13 15 17 18 19 19 19 19 19 19 19 19 19 18 18 18 19 19 19 19 19 18 18 18
4 5 7 7 8 9 9 10 10 10 10 11 12 12 13 14 16 18 19 19 19 19 19 19 19 19 19 18 18 19 19 19 19 19 19 19 18 18
5 6 7 8 9 9 10 11 12 11 11 11 11 12 12 14 16 18 18 19 19 19 19 19 19 19 19 18 18 19 19 19 19 19 19 19 18 18
6 8 9 10 11 11 12 13 13 12 11 11 11 12 13 14 16 17 18 18 18 18 18 19 19 19 19 18 18 19 19 19 19 19 18 18 18 18
8 10 11 12 13 14 15 15 14 13 12 12 12 13 13 14 15 16 17 17 18 18 18 18 18 18 18 18 18 19 19 19 19 19 18 19 18 18
10 11 13 14 15 15 16 16 15 14 13 13 13 13 14 14 15 16 16 16 17 17 17 17 17 18 18 18 18 19 19 19 19 19 19 19 18 18
10 11 13 14 15 16 16 16 15 15 14 13 13 13 14 15 15 16 16 16 16 16 16 16 16 17 17 18 18 19 19 19 18 19 19 19 19 18
9 10 12 14 15 15 16 16 16 15 14 14 14 14 15 15 16 16 16 16 16 16 16 15 15 16 16 17 18 19 19 18 18 18 19 19 19 19
8 10 12 14 15 15 15 16 16 16 16 15 15 15 15 16 16 17 16 16 16 16 16 15 15 15 15 16 17 18 18 18 18 18 18 19 19 19
7 9 13 14 15 15 15 15 16 16 16 16 16 16 16 16 17 17 16 15 15 16 16 16 15 15 15 15 16 17 18 18 17 17 18 19 20 20
5 8 12 14 15 15 15 15 15 16 16 16 16 16 16 17 17 17 16 16 15 16 17 16 16 16 15 15 16 17 17 18 17 17 17 19 20 20
5 8 12 14 15 15 15 15 15 16 16 16 16 16 17 17 17 18 17 17 17 17 18 18 16 16 16 16 16 17 18 18 17 17 18 19 19 20
6 9 12 14 15 15 15 15 15 16 16 16 16 16 16 17 17 18 18 18 18 19 19 19 17 17 17 17 17 18 18 18 18 17 18 18 19 19
8 10 12 13 14 14 14 14 15 15 15 15 16 16 16 16 17 17 18 18 18 19 19 19 18 18 17 18 18 18 18 18 18 17 17 17 18 19
9 10 11 12 12 12 13 13 14 14 14 15 15 16 16 16 17 17 17 18 18 18 18 19 19 18 18 18 19 19 18 18 17 17 17 17 17 18
8 9 9 9 9 9 10 11 12 13 14 14 15 15 16 16 16 17 17 17 17 17 17 18 19 19 18 18 19 18 18 18 17 17 16 16 17 18
8 8 7 7 7 7 8 9 10 11 12 13 14 14 15 16 16 16 17 17 17 16 17 17 18 18 18 17 18 18 18 18 17 16 16 16 17 18
8 8 8 7 7 8 8 8 9 10 12 12 12 13 14 15 15 16 16 16 16 16 17 17 18 17 17 16 17 18 18 18 17 17 17 17 17 18
9 9 9 9 9 9 9 9 9 10 11 11 11 12 12 13 14 14 15 16 16 16 17 17 18 18 17 17 17 17 18 19 18 18 18 18 18 18
10 10 10 10 10 10 10 10 10 10 10 10 10 10 11 11 12 13 14 15 16 16 17 17 18 18 18 18 17 17 18 18 19 19 19 18 18 17
13 12 12 11 11 11 11 11 10 10 10 10 10 10 10 10 11 12 13 14 15 16 16 17 18 19 18 18 17 17 17 18 18 19 19 19 18 17
14 14 13 13 12 12 11 11 11 11 10 10 10 10 10 10 11 12 13 14 15 15 16 17 18 18 18 18 17 18 17 17 17 17 18 19 19 19